Lincoln, CA

9:41 PM PST on February 26, 2017 (GMT -0800)
Lincoln Regional-Harder

Weather History for KLHM - February, 2014

Change the Weather History Date:

Thursday, February 20, 2014

  Actual Average (KAUN) Record (KAUN)
Temperature  
Mean Temperature 50 °F -  
Max Temperature 64 °F 58 °F 78 °F (1964)
Min Temperature 35 °F 40 °F 30 °F (1953)
Degree Days  
Heating Degree Days 16    
Moisture  
Dew Point 35 °F    
Average Humidity 68    
Maximum Humidity 93    
Minimum Humidity 30    
Precipitation  
Precipitation 0.00 in - - ()
Sea Level Pressure  
Sea Level Pressure 30.14 in    
Wind  
Wind Speed 5 mph (NNE)    
Max Wind Speed 13 mph    
Max Gust Speed -    
Visibility 10 miles    
Events      
Averages and records for this station are not official NWS values.
T = Trace of Precipitation, MM = Missing Value Source: NWS Daily Summary

Daily Weather History Graph

Daily Weather History Graph

Search for Another Location

Airport or City:

Trip Planner

Search our weather history database for the weather conditions in past years. The results will help you decide how hot, cold, wet, or windy it might be!

Date:

Astronomy

Feb. 20, 2014 Rise Set
Actual Time 6:50 AM PST 5:48 PM PST
Civil Twilight 6:23 AM PST 6:15 PM PST
Nautical Twilight 5:52 AM PST 6:46 PM PST
Astronomical Twilight 5:21 AM PST 7:17 PM PST
Moon 11:44 PM PST (2/20) 9:39 AM PST (2/20)
Length of Visible Light 11h 52m
Length of Day
10h 58m
Waning Gibbous, 70% of the Moon is Illuminated
Feb 20
Waning Gibbous
Feb 22
Last Quarter
Mar 1
New
Mar 8
First Quarter
Mar 16
Full

Hourly Weather History & Observations

Time (PST) Temp. Windchill Dew Point Humidity Pressure Visibility Wind Dir Wind Speed Gust Speed Precip Events Conditions
12:35 AM 35.6 °F 31.7 °F 33.8 °F 93% 30.18 in 10.0 mi NNE 4.6 mph - N/A   Clear
1:35 AM 39.2 °F - 33.8 °F 81% 30.19 in 10.0 mi Calm Calm - N/A   Clear
1:55 AM 35.6 °F 29.2 °F 33.8 °F 93% 30.18 in 10.0 mi NE 8.1 mph - N/A   Clear
2:35 AM 37.4 °F 33.8 °F 33.8 °F 87% 30.18 in 10.0 mi North 4.6 mph - N/A   Clear
2:55 AM 41.0 °F 38.0 °F 33.8 °F 76% 30.18 in 10.0 mi NNW 4.6 mph - N/A   Clear
3:15 AM 39.2 °F 34.2 °F 35.6 °F 87% 30.19 in 10.0 mi WNW 6.9 mph - N/A   Clear
3:35 AM 41.0 °F 35.8 °F 33.8 °F 76% 30.18 in 10.0 mi NW 8.1 mph - N/A   Clear
4:35 AM 37.4 °F 33.8 °F 33.8 °F 87% 30.18 in 10.0 mi NE 4.6 mph - N/A   Clear
4:55 AM 37.4 °F 34.9 °F 33.8 °F 87% 30.18 in 10.0 mi North 3.5 mph - N/A   Clear
5:35 AM 37.4 °F 33.8 °F 35.6 °F 93% 30.18 in 10.0 mi NNW 4.6 mph - N/A   Clear
5:55 AM 37.4 °F 32.8 °F 33.8 °F 87% 30.18 in 10.0 mi North 5.8 mph - N/A   Clear
6:15 AM 39.2 °F 35.9 °F 33.8 °F 81% 30.18 in 10.0 mi NNW 4.6 mph - N/A   Clear
6:35 AM 37.4 °F 32.1 °F 33.8 °F 87% 30.18 in 10.0 mi NW 6.9 mph - N/A   Clear
6:55 AM 35.6 °F 29.2 °F 33.8 °F 93% 30.19 in 10.0 mi NNW 8.1 mph - N/A   Clear
7:35 AM 41.0 °F 35.8 °F 35.6 °F 81% 30.19 in 10.0 mi North 8.1 mph - N/A   Clear
7:55 AM 42.8 °F 38.0 °F 35.6 °F 76% 30.20 in 10.0 mi North 8.1 mph - N/A   Clear
8:55 AM 46.4 °F 41.1 °F 35.6 °F 66% 30.20 in 10.0 mi NNW 11.5 mph - N/A   Clear
11:15 AM 55.4 °F - 33.8 °F 44% 30.19 in 10.0 mi NNW 11.5 mph - N/A   Clear
12:35 PM 60.8 °F - 32.0 °F 34% 30.17 in 10.0 mi NNW 12.7 mph - N/A   Clear
3:15 PM 64.4 °F - 33.8 °F 32% 30.13 in 10.0 mi NNE 4.6 mph - N/A   Clear
3:35 PM 64.4 °F - 33.8 °F 32% 30.12 in 10.0 mi WNW 3.5 mph - N/A   Clear
3:55 PM 64.4 °F - 33.8 °F 32% 30.12 in 10.0 mi NW 3.5 mph - N/A   Clear
4:15 PM 64.4 °F - 32.0 °F 30% 30.11 in 10.0 mi Calm Calm - N/A   Clear
4:35 PM 64.4 °F - 32.0 °F 30% 30.11 in 10.0 mi Calm Calm - N/A   Clear
4:55 PM 64.4 °F - 32.0 °F 30% 30.11 in 10.0 mi Calm Calm - N/A   Clear
5:15 PM 64.4 °F - 33.8 °F 32% 30.10 in 10.0 mi Calm Calm - N/A   Clear
5:35 PM 62.6 °F - 35.6 °F 37% 30.11 in 10.0 mi Calm Calm - N/A   Clear
5:55 PM 60.8 °F - 33.8 °F 36% 30.10 in 10.0 mi Calm Calm - N/A   Clear
6:15 PM 59.0 °F - 37.4 °F 45% 30.10 in 10.0 mi South 4.6 mph - N/A   Clear
6:35 PM 55.4 °F - 35.6 °F 47% 30.11 in 10.0 mi South 5.8 mph - N/A   Clear
7:00 PM 55.4 °F - 35.6 °F 47% 30.11 in 10.0 mi South 4.6 mph - N/A   Clear
7:15 PM 55.4 °F - 35.6 °F 47% 30.11 in 10.0 mi Calm Calm - N/A   Clear
7:35 PM 44.6 °F 43.1 °F 39.2 °F 81% 30.11 in 10.0 mi ENE 3.5 mph - N/A   Clear
7:55 PM 44.6 °F 41.4 °F 39.2 °F 81% 30.12 in 10.0 mi East 5.8 mph - N/A   Clear
8:15 PM 42.8 °F 40.1 °F 39.2 °F 87% 30.12 in 10.0 mi East 4.6 mph - N/A   Clear
8:35 PM 42.8 °F 39.3 °F 39.2 °F 87% 30.12 in 10.0 mi East 5.8 mph - N/A   Clear
8:55 PM 42.8 °F 38.6 °F 39.2 °F 87% 30.13 in 10.0 mi East 6.9 mph - N/A   Clear
9:15 PM 42.8 °F 39.3 °F 37.4 °F 81% 30.13 in 10.0 mi East 5.8 mph - N/A   Clear
9:35 PM 41.0 °F 35.8 °F 37.4 °F 87% 30.13 in 10.0 mi East 8.1 mph - N/A   Clear
9:55 PM 42.8 °F 39.3 °F 37.4 °F 81% 30.13 in 10.0 mi East 5.8 mph - N/A   Clear
10:15 PM 42.8 °F 39.3 °F 37.4 °F 81% 30.13 in 10.0 mi East 5.8 mph - N/A   Clear
10:35 PM 42.8 °F 39.3 °F 37.4 °F 81% 30.12 in 10.0 mi East 5.8 mph - N/A   Clear
10:55 PM 42.8 °F 39.3 °F 37.4 °F 81% 30.11 in 10.0 mi East 5.8 mph - N/A   Clear
11:15 PM 41.0 °F 36.4 °F 37.4 °F 87% 30.11 in 10.0 mi East 6.9 mph - N/A   Clear
11:35 PM 41.0 °F 36.4 °F 35.6 °F 81% 30.11 in 10.0 mi ENE 6.9 mph - N/A   Clear
11:55 PM 41.0 °F 37.1 °F 35.6 °F 81% 30.11 in 10.0 mi ENE 5.8 mph - N/A   Clear